Toronto Pearson, Ontario

6:04 AM EST on December 07, 2019 (GMT -0500)
Toronto-Pearson International

Weather History for CYYZ - May, 2019

Change the Weather History Date:

Monday, May 27, 2019

  Actual Average Record
Temperature  
Mean Temperature 62 °F -  
Max Temperature 73 °F 73 °F 86 °F (2014)
Min Temperature 50 °F 51 °F 41 °F (1997)
Degree Days  
Heating Degree Days 4    
Growing Degree Days 12 (Base 50)    
Moisture  
Dew Point 48 °F    
Average Humidity 58    
Maximum Humidity 82    
Minimum Humidity 29    
Precipitation  
Precipitation 0.02 in 0.09 in - ()
Sea Level Pressure  
Sea Level Pressure 30.02 in    
Wind  
Wind Speed 7 mph ()    
Max Wind Speed 16 mph    
Max Gust Speed 23 mph    
Visibility 15.0 miles    
Events      
Averages and records for this station are not official NWS values.
T = Trace of Precipitation, MM = Missing Value Source: Averaged Metar Reports

Daily Weather History Graph

Daily Weather History Graph

Search for Another Location

Airport or City:

Astronomy

May. 27, 2019 Rise Set
Actual Time 5:43 AM EDT 8:48 PM EDT
Civil Twilight 5:08 AM EDT 9:23 PM EDT
Nautical Twilight 4:24 AM EDT 10:07 PM EDT
Astronomical Twilight 3:31 AM EDT 11:01 PM EDT
Moon 2:43 AM EDT (5/27) 1:44 PM EDT (5/27)
Length of Visible Light 16h 14m
Length of Day
15h 05m
Last Quarter, 41% of the Moon is Illuminated
May 27
Last Quarter
Jun 3
New
Jun 10
First Quarter
Jun 17
Full
Jun 25
Last Quarter

Hourly Weather History & Observations

Time (EDT) Temp. Dew Point Humidity Pressure Visibility Wind Dir Wind Speed Gust Speed Precip Events Conditions
12:00 AM 57.2 °F 46.4 °F 67% 30.01 in 15.0 mi NE 8.1 mph - N/A   Clear
1:00 AM 55.4 °F 46.4 °F 72% 30.03 in 15.0 mi North 5.8 mph - N/A   Clear
2:00 AM 54 °F 47 °F 68% 30.03 in 15 mi NNE 5.8 mph - -  
2:00 AM 53.6 °F 46.4 °F 77% 30.02 in 15.0 mi Variable 4.6 mph - N/A   Clear
3:00 AM 53.6 °F 46.4 °F 77% 30.02 in 15.0 mi Variable 8.1 mph - N/A   Clear
4:00 AM 51.8 °F 46.4 °F 82% 30.01 in 15.0 mi ENE 10.4 mph - N/A   Clear
5:00 AM 53 °F 46 °F 71% 30.02 in 15 mi NE 9.2 mph - -  
5:00 AM 53.6 °F 46.4 °F 77% 30.02 in 15.0 mi NE 9.2 mph - N/A   Partly Cloudy
6:00 AM 53.6 °F 46.4 °F 77% 30.04 in 15.0 mi NNE 6.9 mph - N/A   Partly Cloudy
7:00 AM 57.2 °F 46.4 °F 67% 30.06 in 15.0 mi ENE 6.9 mph - N/A   Clear
8:00 AM 60 °F 48 °F 54% 30.06 in 15 mi NE 8.1 mph - -   Clear
8:00 AM 60.8 °F 48.2 °F 63% 30.06 in 15.0 mi ENE 8.1 mph - N/A   Partly Cloudy
9:00 AM 62.6 °F 48.2 °F 59% 30.06 in 15.0 mi ENE 9.2 mph - N/A   Partly Cloudy
10:00 AM 64.4 °F 48.2 °F 56% 30.05 in 15.0 mi ENE 8.1 mph - N/A   Mostly Cloudy
11:00 AM 67 °F 49 °F 42% 30.05 in 15 mi ESE 3.5 mph - -  
11:00 AM 68.0 °F 50.0 °F 52% 30.05 in 15.0 mi Variable 3.5 mph - N/A   Mostly Cloudy
12:00 PM 69.8 °F 48.2 °F 46% 30.04 in 15.0 mi Variable 6.9 mph - N/A   Partly Cloudy
1:00 PM 71.6 °F 50.0 °F 46% 30.03 in 15.0 mi NE 16.1 mph 21.9 mph N/A   Mostly Cloudy
2:00 PM 71 °F 46 °F 29% 30.03 in 15 mi NE 12.7 mph - -   Scattered Clouds
2:00 PM 69.8 °F 46.4 °F 43% 30.03 in 15.0 mi NNE 11.5 mph 23.0 mph N/A   Mostly Cloudy
3:00 PM 73.4 °F 46.4 °F 38% 30.00 in 15.0 mi Variable 9.2 mph - N/A   Partly Cloudy
4:00 PM 71.6 °F 48.2 °F 43% 29.99 in 15.0 mi ENE 10.4 mph 17.3 mph N/A   Mostly Cloudy
5:00 PM 71 °F 50 °F 36% 29.99 in 15 mi NE 9.2 mph - -   Overcast
5:00 PM 71.6 °F 50.0 °F 46% 29.99 in 15.0 mi NE 9.2 mph - N/A   Overcast
6:00 PM 69.8 °F 48.2 °F 46% 29.98 in 15.0 mi NNE 9.2 mph 18.4 mph N/A   Overcast
7:00 PM 68.0 °F 51.8 °F 56% 29.97 in 15.0 mi NNE 8.1 mph - N/A   Overcast
8:00 PM 64 °F 51 °F 53% 29.97 in 15 mi ENE 10.4 mph - -   Overcast
8:00 PM 64.4 °F 51.8 °F 64% 29.97 in 15.0 mi ENE 12.7 mph - N/A   Overcast
10:00 PM 60.8 °F 48.2 °F 63% 29.95 in 15.0 mi NNE 4.6 mph - N/A   Overcast
11:00 PM 57.2 °F 48.2 °F 72% 29.93 in 15.0 mi ENE 11.5 mph - N/A   Overcast